#timestamp,LO_Frequency,Hit,StdDev 
1564736415.1,286046999.7,N
1564736416.0,286046999.7,N
1564736435.8,286047002.6,N
1564736455.7,286047001.9,N
1564736475.5,286047001.3,N
1564736495.3,286047002.2,N
1564736515.2,286047001.4,N
1564736535.0,286047001.5,N
1564736535.9,286047001.5,N
1564736555.8,286047002.1,N
1564736575.6,286047002.6,N
1564736595.4,286047002.3,N
1564736615.3,286047002.2,N
1564736635.1,286047001.7,N
1564736655.8,286047003.9,Y
1564736675.7,286047002.7,P
1564736695.5,286046999.7,N
1564736715.4,286047002.6,N
1564736735.2,286047002.4,N
1564736755.0,286047002.6,N
1564736755.9,286047002.6,N
1564736775.8,286047002.5,N
1564736795.6,286047000.3,N
1564736815.5,286046998.5,N
1564736835.3,286046998.6,N
1564736855.1,286046998.4,N
1564736875.9,286047000.8,N
1564736895.7,286047000.7,N
1564736915.5,286046998.4,N
1564736935.4,286046998.4,N
1564736955.2,286046996.6,N
1564736975.1,286046996.5,N
1564736976.0,286046996.5,N
1564736995.8,286046999.5,N
1564737015.6,286046996.8,N
1564737035.5,286046997.1,N
1564737055.3,286046996.6,N
1564737075.1,286046999.3,N
1564737095.9,286046996.8,N
1564737115.7,286046997.3,N
1564737135.6,286046996.6,N
1564737155.4,286046996.6,N
1564737175.2,286046997.1,N
1564737195.1,286046996.6,N
1564737196.0,286046996.6,N
1564737215.8,286046996.5,N
1564737235.7,286046997.1,N
1564737255.5,286046997.5,N
1564737275.3,286046997.5,N
1564737295.2,286046997.2,N
1564737315.0,286046997.0,N
1564737315.9,286046997.0,N
1564737335.8,286046996.9,N
1564737355.6,286046999.5,N
1564737375.4,286046997.3,N
1564737395.3,286046999.5,N
1564737415.1,286046997.1,N
1564737435.9,286046994.9,Y
1564737455.7,286046999.0,P
1564737475.5,286046998.5,N
1564737495.4,286046999.4,N
1564737515.2,286046998.2,N
1564737535.1,286047000.7,N
1564737536.0,286047000.7,N
1564737555.8,286047001.0,N
1564737575.6,286046998.2,N
1564737595.5,286046998.2,N
1564737615.3,286046998.9,N
1564737635.1,286046998.3,N
1564737655.9,286047000.6,N
1564737675.7,286046998.3,N
1564737695.6,286046998.1,N
1564737715.4,286047000.9,N
1564737735.2,286047001.0,N
1564737755.1,286046999.6,N
1564737756.0,286046999.6,N
1564737775.8,286046998.8,N
1564737795.6,286047001.0,N
1564737815.5,286047001.1,N
1564737835.3,286046998.5,N
1564737855.2,286046998.3,N
1564737875.9,286047000.6,N
1564737895.7,286047000.5,N
1564737915.6,286046999.9,N
1564737935.4,286047000.5,N
1564737955.3,286047000.0,N
1564737975.1,286047000.9,N
1564737976.0,286047000.9,N
1564737995.8,286047000.3,N
1564738015.7,286046999.8,N
1564738035.5,286047000.4,N
1564738055.4,286047000.0,N
1564738075.2,286047001.2,N
1564738095.0,286046999.7,N
1564738095.9,286046999.7,N
1564738115.8,286047000.9,N
1564738135.6,286047000.9,N
1564738155.4,286046999.3,N
1564738175.3,286046999.0,N
1564738195.1,286046998.8,N
1564738215.9,286046999.0,N
1564738235.7,286046998.5,N
1564738255.5,286047000.9,N
1564738275.4,286047002.4,N
1564738295.2,286047002.3,N
1564738315.0,286047002.1,N
1564738316.0,286047002.1,N
1564738335.8,286047000.3,N
1564738355.6,286047002.4,N
1564738375.5,286046999.8,N
1564738395.3,286047001.1,N
1564738415.1,286046998.8,N
1564738435.9,286046998.2,N
1564738455.7,286046999.0,N
1564738475.6,286047001.1,N
1564738495.4,286047000.8,N
1564738515.2,286047002.8,N
1564738535.1,286046999.7,N
1564738536.0,286046999.7,N
1564738555.8,286047001.9,N
1564738575.7,286047001.8,N
1564738595.5,286046999.8,N
1564738615.3,286047000.7,N
1564738635.2,286047000.9,N
1564738655.0,286047000.2,N
1564738655.9,286047000.2,N
1564738675.8,286046999.9,N
1564738695.6,286047002.8,N
1564738715.4,286047002.4,N
1564738735.3,286047002.6,N
1564738755.1,286047002.0,N
1564738775.8,286047001.4,N
1564738795.7,286047001.3,N
1564738815.5,286047002.5,N
1564738835.4,286047001.8,N
1564738855.2,286047003.4,N
1564738875.0,286047003.9,N
1564738875.9,286047003.9,N
1564738895.8,286047004.0,N
1564738915.6,286047001.7,N
1564738935.5,286047002.0,N
1564738955.3,286047001.3,N
1564738975.1,286047001.7,N
1564738995.9,286047002.6,N
1564739015.7,286047001.7,N
1564739035.6,286047004.3,Y
1564739055.4,286047000.1,P
1564739075.2,286047000.1,N
1564739095.1,286047002.6,P
1564739096.0,286047002.6,N
1564739115.8,286047002.4,N
1564739135.6,286047002.7,N
1564739155.5,286046999.8,N
1564739175.3,286046999.9,N
1564739195.2,286046999.8,N
1564739215.9,286046999.8,N
1564739235.7,286047002.3,N
1564739255.6,286047002.4,N
1564739275.4,286046999.7,N
1564739295.2,286047002.8,N
1564739315.1,286047000.6,N
1564739316.0,286047000.6,N
1564739335.8,286047000.8,N
1564739355.7,286047000.3,N
1564739375.5,286047002.6,N
1564739395.3,286047002.8,N
1564739415.2,286047000.3,N
1564739435.0,286047002.3,N
1564739435.9,286047002.3,N
1564739455.8,286047000.9,N
1564739475.6,286047000.7,N
1564739495.4,286047000.3,N
1564739515.3,286047000.0,N
1564739535.1,286047002.1,N
1564739555.9,286047002.3,N
1564739575.7,286046999.8,N
1564739595.5,286047002.7,N
1564739615.4,286046999.7,N
1564739635.2,286047002.5,N
1564739655.0,286047000.2,N
1564739656.0,286047000.2,N
1564739675.8,286046999.8,N
1564739695.6,286047002.2,N
1564739715.5,286047002.8,N
1564739735.3,286047000.1,N
1564739755.1,286046999.9,N
1564739775.9,286047002.4,N
1564739795.7,286047002.8,N
1564739815.6,286047002.1,N
1564739835.4,286047002.6,N
1564739855.2,286047001.9,N
1564739875.1,286047002.7,N
1564739876.0,286047002.7,N
1564739895.8,286047002.6,N
1564739915.6,286047002.7,N
1564739935.5,286046999.9,N
1564739955.3,286047000.6,N
1564739975.2,286047000.8,N
1564739995.9,286047000.6,N
